EW8958 Weather Reports


Display with metric or nautical units.
time (UTC)temp
F
wind
direction
speed
MPH
gust
MPH
rain 1hr
in
rain 24hr
in
rain mn
in
humidity
%
barometer
mb
20220627144525 73 163 2.0 4.0 0.08 0.08 0.08 80 1010.7
20220627143530 74 145 4.0 7.0 0.06 0.06 0.06 75 1010.7
20220627142535 76 144 3.0 5.0 0.00 0.00 0.00 71 1010.7
20220627141522 76 72 5.0 8.0 0.00 0.00 0.00 69 1010.8
20220627140521 76 108 5.0 7.0 0.00 0.00 0.00 69 1010.9
20220627135516 76 147 5.0 11.0 0.00 0.00 0.00 69 1010.8
20220627134522 76 173 4.0 6.0 0.00 0.00 0.00 69 1010.8
20220627133529 75 146 3.0 8.0 0.00 0.00 0.00 69 1010.8
20220627132518 75 168 5.0 9.0 0.00 0.00 0.00 69 1010.9
20220627131525 75 142 3.0 6.0 0.00 0.00 0.00 69 1010.8
20220627130528 75 106 5.0 9.0 0.00 0.00 0.00 69 1010.7
20220627125528 75 168 4.0 7.0 0.00 0.00 0.00 69 1010.7
20220627124518 75 143 4.0 5.0 0.00 0.00 0.00 68 1010.7
20220627123522 75 195 4.0 7.0 0.00 0.00 0.00 69 1010.6
20220627122530 74 176 3.0 5.0 0.00 0.00 0.00 69 1010.9
20220627121519 74 179 3.0 5.0 0.00 0.00 0.00 69 1010.8
20220627120517 74 145 3.0 6.0 0.00 0.00 0.00 69 1011.0
20220627115522 74 155 3.0 7.0 0.00 0.00 0.00 69 1011.1
20220627114529 73 125 4.0 7.0 0.00 0.00 0.00 69 1011.1
20220627113517 73 228 2.0 7.0 0.00 0.00 0.00 69 1011.0
20220627112524 73 125 3.0 5.0 0.00 0.00 0.00 69 1011.1
20220627111531 73 110 3.0 6.0 0.00 0.00 0.00 69 1011.0
20220627110533 73 208 4.0 7.0 0.00 0.00 0.00 69 1011.0
20220627105516 72 138 4.0 7.0 0.00 0.00 0.00 69 1011.2
20220627104523 72 161 4.0 8.0 0.00 0.00 0.00 70 1011.2
20220627103529 0 131 3.0 4.0 0.00 0.00 0.00 1011.2
20220627102518 71 142 4.0 7.0 0.00 0.00 0.00 72 1011.4
20220627101525 71 142 3.0 5.0 0.00 0.00 0.00 72 1011.3
20220627100527 70 100 4.0 7.0 0.00 0.00 0.00 72 1011.4
20220627095519 70 185 3.0 4.0 0.00 0.00 0.00 72 1011.5
20220627094522 70 147 3.0 7.0 0.00 0.00 0.00 72 1011.6
20220627093523 69 154 3.0 7.0 0.00 0.00 0.00 72 1011.8
20220627092518 69 111 3.0 6.0 0.00 0.00 0.00 71 1011.9
20220627091524 69 178 4.0 5.0 0.00 0.00 0.00 71 1011.9
20220627090531 69 137 3.0 4.0 0.00 0.00 0.00 71 1011.9
20220627085519 69 153 3.0 5.0 0.00 0.00 0.00 70 1012.0
20220627084525 69 139 1.0 4.0 0.00 0.00 0.00 69 1012.0
20220627083532 69 129 3.0 7.0 0.00 0.00 0.00 69 1012.1
20220627082521 70 133 2.0 4.0 0.00 0.00 0.00 68 1012.2
20220627081522 70 243 2.0 7.0 0.00 0.00 0.00 67 1012.2
20220627080529 70 125 2.0 6.0 0.00 0.00 0.00 66 1012.4
20220627075517 70 151 4.0 6.0 0.00 0.00 0.00 65 1012.5
20220627074518 70 144 4.0 6.0 0.00 0.00 0.00 64 1012.6
20220627073532 70 128 3.0 5.0 0.00 0.00 0.00 63 1012.7
20220627072520 70 208 3.0 7.0 0.00 0.00 0.00 62 1012.7
20220627071527 70 171 4.0 6.0 0.00 0.00 0.00 61 1013.0
20220627070516 70 135 3.0 5.0 0.00 0.00 0.00 61 1013.2
20220627065522 70 188 2.0 4.0 0.00 0.00 0.00 60 1013.2
20220627064530 70 138 1.0 3.0 0.00 0.00 0.00 59 1013.3
20220627063518 70 167 2.0 4.0 0.00 0.00 0.00 58 1013.4
20220627062521 71 155 3.0 8.0 0.00 0.00 0.00 58 1013.3
20220627061528 71 146 2.0 4.0 0.00 0.00 0.00 57 1013.4
20220627060531 71 156 3.0 5.0 0.00 0.00 0.00 57 1013.5
20220627055517 71 163 3.0 6.0 0.00 0.00 0.00 57 1013.5
20220627054525 71 152 3.0 6.0 0.00 0.00 0.00 57 1013.6
20220627053521 71 225 3.0 8.0 0.00 0.00 0.00 58 1013.6
20220627052528 71 196 2.0 4.0 0.00 0.00 0.00 57 1013.9
20220627051517 71 110 2.0 5.0 0.00 0.00 0.00 57 1013.8
20220627050523 71 146 3.0 7.0 0.00 0.00 0.00 57 1013.9
20220627045532 72 152 3.0 5.0 0.00 0.00 0.00 57 1014.0
20220627044518 72 203 3.0 8.0 0.00 0.00 0.00 57 1014.0
20220627043534 72 170 2.0 3.0 0.00 0.00 0.00 57 1013.9
20220627042517 72 162 3.0 8.0 0.00 0.00 0.00 57 1013.9
20220627041522 72 148 3.0 5.0 0.00 0.00 0.00 58 1014.2
20220627040520 73 172 2.0 5.0 0.00 0.00 0.00 58 1014.3
20220627035527 73 156 3.0 6.0 0.00 0.00 0.00 59 1014.4
20220627034534 73 159 3.0 8.0 0.00 0.00 0.00 59 1014.5
20220627033523 73 130 3.0 7.0 0.00 0.00 0.00 61 1014.5
20220627032526 74 169 2.0 5.0 0.00 0.00 0.00 62 1014.5
20220627031528 74 140 1.0 3.0 0.00 0.00 0.00 64 1014.5
20220627030521 74 120 2.0 6.0 0.00 0.00 0.00 64 1014.3
20220627025527 75 146 3.0 4.0 0.00 0.00 0.00 65 1014.6
20220627024528 75 151 2.0 4.0 0.00 0.00 0.00 66 1014.6
20220627023530 75 156 3.0 5.0 0.00 0.00 0.00 67 1014.6
20220627022521 75 155 3.0 6.0 0.00 0.00 0.00 67 1014.6
20220627021520 76 154 3.0 4.0 0.00 0.00 0.00 67 1014.8
20220627020516 76 153 3.0 5.0 0.00 0.00 0.00 66 1014.7
20220627015529 76 158 4.0 7.0 0.00 0.00 0.00 66 1014.5
20220627014532 77 4.0 4.0 0.00 0.00 0.00 65 1014.4
20220627013521 77 184 2.0 4.0 0.00 0.00 0.00 64 1014.4
20220627012525 77 129 3.0 7.0 0.00 0.00 0.00 63 1014.3
20220627011522 77 176 3.0 6.0 0.00 0.00 0.00 62 1014.3
20220627010531 77 169 3.0 4.0 0.00 0.00 0.00 61 1014.2
20220627005521 78 182 3.0 4.0 0.00 0.00 0.00 60 1014.1
20220627004529 78 207 3.0 6.0 0.00 0.00 0.00 60 1014.0
20220627003523 79 185 2.0 4.0 0.00 0.00 0.00 59 1014.0
20220627002516 80 154 3.0 4.0 0.00 0.00 0.00 59 1013.9
20220627002021 80 144 3.0 5.0 0.00 0.00 0.00 58 1014.0
20220627001059 81 158 3.0 4.0 0.00 0.00 0.00 57 1014.0
20220627000529 81 166 4.0 6.0 0.00 0.00 0.00 57 1013.9
20220626235522 82 179 4.0 6.0 0.00 0.00 0.00 56 1013.8
20220626234533 82 185 4.0 6.0 0.00 0.00 0.00 55 1013.8
20220626233522 83 162 5.0 9.0 0.00 0.00 0.00 55 1013.7
20220626232529 84 158 4.0 6.0 0.00 0.00 0.00 53 1013.6
20220626231525 85 166 4.0 8.0 0.00 0.00 0.00 52 1013.7
20220626230526 85 169 5.0 13.0 0.00 0.00 0.00 52 1013.4
20220626225533 85 169 5.0 8.0 0.00 0.00 0.00 52 1013.4
20220626224522 87 151 5.0 10.0 0.00 0.00 0.00 52 1013.3
20220626223528 87 178 5.0 10.0 0.00 0.00 0.00 50 1013.3
20220626222530 89 146 6.0 10.0 0.00 0.00 0.00 48 1013.4
20220626221519 90 154 3.0 6.0 0.00 0.00 0.00 48 1013.4
20220626220520 90 147 5.0 7.0 0.00 0.00 0.00 46 1013.3
20220626215529 91 181 5.0 9.0 0.00 0.00 0.00 45 1013.3
20220626214517 92 200 5.0 7.0 0.00 0.00 0.00 42 1013.3
20220626213524 93 197 4.0 7.0 0.00 0.00 0.00 40 1013.3
20220626212526 93 178 4.0 8.0 0.00 0.00 0.00 40 1013.5
20220626211515 93 172 4.0 7.0 0.00 0.00 0.00 39 1013.6
20220626210516 90 161 3.0 5.0 0.00 0.00 0.00 41 1013.8
20220626205529 92 171 3.0 4.0 0.00 0.00 0.00 44 1013.9
20220626204517 92 35 4.0 7.0 0.00 0.00 0.00 45 1014.0
20220626203524 91 44 4.0 7.0 0.00 0.00 0.00 46 1014.0
20220626202532 91 196 2.0 4.0 0.00 0.00 0.00 45 1014.1
20220626201519 91 191 3.0 5.0 0.00 0.00 0.00 44 1014.2
20220626200527 94 192 3.0 4.0 0.00 0.00 0.00 38 1014.2
20220626195533 95 180 2.0 4.0 0.00 0.00 0.00 38 1014.3
20220626194516 95 175 5.0 7.0 0.00 0.00 0.00 38 1014.5
20220626193523 95 278 4.0 5.0 0.00 0.00 0.00 37 1014.6
20220626192524 94 173 4.0 7.0 0.00 0.00 0.00 38 1014.7
20220626191520 94 219 3.0 5.0 0.00 0.00 0.00 38 1014.7
20220626190526 94 186 4.0 5.0 0.00 0.00 0.00 37 1014.8
20220626185526 94 141 3.0 5.0 0.00 0.00 0.00 37 1014.8
20220626184533 95 194 3.0 5.0 0.00 0.00 0.00 36 1014.9
20220626183519 95 182 4.0 6.0 0.00 0.00 0.00 36 1015.0
20220626182516 96 146 3.0 5.0 0.00 0.00 0.00 37 1015.0
20220626181529 95 171 3.0 7.0 0.00 0.00 0.00 37 1015.4
20220626180520 96 178 3.0 4.0 0.00 0.00 0.00 38 1015.4
20220626175519 96 196 3.0 5.0 0.00 0.00 0.00 36 1015.6
20220626174525 95 182 4.0 6.0 0.00 0.00 0.00 37 1015.7
20220626173530 95 148 3.0 5.0 0.00 0.00 0.00 36 1015.8
20220626172518 94 163 5.0 8.0 0.00 0.00 0.00 39 1015.9
20220626171520 94 219 4.0 5.0 0.00 0.00 0.00 38 1015.9
20220626170521 94 125 3.0 5.0 0.00 0.00 0.00 39 1016.2
20220626165515 94 144 4.0 7.0 0.00 0.00 0.00 39 1016.3
20220626164522 94 177 4.0 8.0 0.00 0.00 0.00 40 1016.3
20220626163524 94 190 4.0 6.0 0.00 0.00 0.00 40 1016.4
20220626162527 93 160 3.0 6.0 0.00 0.00 0.00 40 1016.6
20220626161527 93 183 4.0 6.0 0.00 0.00 0.00 41 1016.7
20220626160521 93 233 3.0 5.0 0.00 0.00 0.00 41 1016.9
20220626155522 93 138 4.0 7.0 0.00 0.00 0.00 41 1017.0
20220626154524 93 170 3.0 6.0 0.00 0.00 0.00 41 1017.1
20220626153525 93 151 3.0 5.0 0.00 0.00 0.00 41 1017.2
20220626152531 92 165 3.0 5.0 0.00 0.00 0.00 42 1017.2
20220626151520 91 120 4.0 7.0 0.00 0.00 0.00 41 1017.4
20220626150527 92 147 2.0 4.0 0.00 0.00 0.00 41 1017.5
20220626145528 92 280 2.0 4.0 0.00 0.00 0.00 41 1017.6